Regional Weather Roundup
Issued by NWS Northern Indiana

Home | Current Version | Previous Version | Text Only | Print | Product List | Glossary Off
Versions: 1 2 3 4 5 6 7 8 9 10 11 12 13 14 15 16 17 18 19 20 21 22 23 24 25 26 27 28 29 30 31 32 33 34 35 36 37 38 39 40 41 42 43 44 45 46 47 48 49 50

000
ASUS43 KIWX 300510
RWRIWX

KIWX WEATHER ROUNDUP
NATIONAL WEATHER SERVICE NORTHERN INDIANA
100 AM EDT TUE AUG 30 2016

NOTE: "FAIR" INDICATES FEW OR NO CLOUDS BELOW 12,000 FEET WITH NO
SIGNIFICANT WEATHER AND/OR OBSTRUCTIONS TO VISIBILITY.

* THESE STATIONS ARE NOT UNDER NWS QUALITY CONTROL. THEY ALSO MAY NOT
  REPORT WEATHER SUCH AS PRECIPITATION OR FOG.

INZ001>027-300600-
NORTHERN INDIANA

CITY           SKY/WX    TMP DP  RH WIND       PRES   REMARKS
GARY*          PTCLDY    74  74 100 CALM      30.18F
VALPARAISO     CLEAR     73  70  90 CALM      30.19S
MICHIGAN CITY* CLEAR     72  72 100 MISG      30.19S
LAPORTE*       CLEAR    N/A N/A N/A CALM      30.19S
KNOX*          PTCLDY    70  55  60 CALM      30.18S
SOUTH BEND     CLEAR     72  71  97 CALM      30.19S
GOSHEN         PTCLDY    73  68  84 SE5       30.20R
MONTICELLO*    CLEAR     73  68  84 CALM      30.17S
LOGANSPORT*    CLEAR     72  70  94 CALM      30.19S
ROCHESTER*     CLEAR     73  72  94 CALM      30.19S
WARSAW*        CLEAR     70  70 100 CALM      30.20S
ANGOLA*        CLEAR     70  63  78 SE3       30.21S
FORT WAYNE     PTCLDY    71  66  84 E6        30.20S
HUNTINGTON*    CLEAR     71  69  93 CALM      30.20S
MARION*        CLEAR     72  69  89 E3        30.20R

$$
INZ028>050-300600-
CENTRAL INDIANA

CITY           SKY/WX    TMP DP  RH WIND       PRES   REMARKS
LAFAYETTE      CLEAR     73  73 100 CALM      30.16S
KOKOMO*        CLEAR     72  70  94 E5        30.18S
MUNCIE*        CLEAR     73  69  87 E3        30.19S
INDIANAPOLIS   CLEAR     78  70  76 E6        30.16F

$$
MIZ043>046-050>051-056>058-064>065-071>073-077>080-300600-
SOUTHWEST LOWER MICHIGAN

CITY           SKY/WX    TMP DP  RH WIND       PRES   REMARKS
BATTLE CREEK   CLEAR     69  69 100 S7        30.21R
BENTON HARBOR  PTCLDY    73  69  87 CALM      30.18S
COLDWATER*     CLEAR     70  68  94 SE6       30.21S
HILLSDALE*     CLEAR     67  63  86 S3        30.22S
HOLLAND        CLEAR     70  68  93 CALM      30.19S
GRAND RAPIDS   CLEAR     71  67  87 CALM      30.19S
KALAMAZOO      CLEAR     73  67  81 S6        30.20R
STURGIS*       CLEAR     72  68  87 SE6       30.20R
THREE RIVERS*  FAIR      72  69  90 CALM      30.21R

$$
OHZ001>008-015>018-024>025-300600-
NORTHWEST OHIO

CITY           SKY/WX    TMP DP  RH WIND       PRES   REMARKS
WAUSEON*       FAIR      66  64  94 CALM      30.21R
DEFIANCE       PTCLDY    69  63  81 CALM      30.21R
FINDLAY        PTCLDY    68  61  78 E3        30.19F
TOLEDO EXPRESS PTCLDY    64  64 100 CALM      30.20S
TOLEDO METCALF CLEAR     67  65  93 CALM      30.21S
LIMA           CLEAR     66  63  90 E5        30.21S

$$
AND FOR LAKE MICHIGAN COASTAL AND OPEN LAKE BUOY OBSERVATIONS

STATION/POSITION TEMP    WIND        PRES    VSBY  WAVE
                 AIR SEA DIR/SP/G                  HT/PER
                 (F)     (DEG/KT/KT) (MB)    (MI)  (FT/S)
CALUMET HARBOR    75     340/  2/  3 1021.5R
MICHIGAN CITY     76     120/  2/  3   N/A
BURNS HARBOR      74      CALM  /  9 1022.0R
SAINT JOSEPH      75      CALM  /  2 1022.7S
SOUTH LAKE BUOY   75 76  110/  2/  4 1021.2S         0
4 MI NW BRIDGMAN  75 76   90/  4/  4 1021.6R         0
MICHIGAN CITY     74 76  140/  4/  4   N/A           1

$$
&&




USA.gov is the U.S. government's official web portal to all federal, state and local government web resources and services.